Location: Baix
(44.7118°N, 4.7648°E)
Time: 07:18:31
(UTC+00:00)

Vanguard 1 - Pass Details

Date: 26 November 2020
Orbit: 648 x 3834 km, 34.3° (Epoch: 21 January)

Event Time Altitude Azimuth Distance (km) Brightness Sun altitude
Rises 07:33:14 0° 256° (WSW) 4,187 12.9 5.2°
Reaches altitude 10° 07:35:37 10° 251° (WSW) 3,505 12.6 5.6°
Maximum altitude 07:44:36 52° 178° (S) 2,491 12.6 6.8°
Drops below altitude 10° 08:00:53 10° 110° (ESE) 6,111 15.7 9.0°
Sets 08:06:40 0° 107° (ESE) 7,507 15.8 9.8°
